This is the latest recevied weather packets stored in our database for station/object N4QD-13. If no packets are shown the sender has not sent any weather packets the latest 10 day(s).
| Time | Temp. | Humidity | Pressure | Rain* | Wind** | Luminosity | Snow |
|---|---|---|---|---|---|---|---|
| 1777585576 | 17.22° C | 44% | 1011.8 hPa | 0 mm | - | 300 W/m² | - |
| 1777585272 | 17.22° C | 44% | 1011.8 hPa | 0 mm | - | 345 W/m² | - |
| 1777584967 | 17.22° C | 46% | 1011.9 hPa | 0 mm | - | 329 W/m² | - |
| 1777584664 | 16.67° C | 46% | 1011.7 hPa | 0 mm | - | 356 W/m² | - |
| 1777584361 | 16.11° C | 47% | 1011.7 hPa | 0 mm | - | 390 W/m² | - |
| 1777584057 | 16.11° C | 46% | 1011.7 hPa | 0 mm | - | 199 W/m² | - |
| 1777583752 | 16.67° C | 45% | 1011.7 hPa | 0 mm | - | 250 W/m² | - |
| 1777583451 | 16.67° C | 45% | 1011.6 hPa | 0 mm | - | 116 W/m² | - |
| 1777583150 | 16.67° C | 44% | 1011.8 hPa | 0 mm | - | 503 W/m² | - |
| 1777582846 | 17.78° C | 42% | 1011.6 hPa | 0 mm | - | 110 W/m² | - |
| 1777582544 | 17.22° C | 43% | 1011.6 hPa | 0 mm | - | 568 W/m² | - |
| 1777582238 | 17.78° C | 42% | 1011.4 hPa | 0 mm | - | 523 W/m² | - |
| 1777581937 | 17.78° C | 41% | 1011.5 hPa | 0 mm | - | 599 W/m² | - |
| 1777581632 | 18.33° C | 44% | 1011.4 hPa | 0 mm | - | 607 W/m² | - |
| 1777581326 | 18.33° C | 42% | 1011.3 hPa | 0 mm | - | 632 W/m² | - |
| 1777581022 | 18.89° C | 42% | 1011.2 hPa | 0 mm | - | 684 W/m² | - |
| 1777580721 | 17.78° C | 40% | 1011.4 hPa | 0 mm | - | 704 W/m² | - |
| 1777580417 | 18.33° C | 41% | 1011.1 hPa | 0 mm | - | 714 W/m² | - |
| 1777580114 | 18.33° C | 43% | 1011.1 hPa | 0 mm | - | 724 W/m² | - |
| 1777579810 | 18.89° C | 41% | 1011.2 hPa | 0 mm | - | 713 W/m² | - |
| 1777579509 | 18.89° C | 42% | 1011.2 hPa | 0 mm | - | 727 W/m² | - |
| 1777579209 | 18.33° C | 43% | 1011 hPa | 0 mm | - | 744 W/m² | - |
| 1777578904 | 18.33° C | 42% | 1011 hPa | 0 mm | - | 776 W/m² | - |
| 1777578600 | 18.33° C | 43% | 1011.2 hPa | 0 mm | - | 798 W/m² | - |
| 1777578295 | 18.89° C | 40% | 1010.8 hPa | 0 mm | - | 805 W/m² | - |
* Rain latest hour (hover to see other rain measurements)
** Current wind speed in m/s (hover to see current wind gust speed)